EW5633 Weather Reports


Display with metric or nautical units.
time (UTC)temp
F
wind
direction
speed
MPH
gust
MPH
rain 1hr
in
rain 24hr
in
rain mn
in
humidity
%
barometer
mb
20260506154534 60 0 0.0 0.0 0.00 0.00 0.00 75 1019.9
20260506153030 58 0 0.0 0.0 0.00 0.00 0.00 74 1020.0
20260506151530 55 0 0.0 0.0 0.00 0.00 0.00 80 1019.9
20260506150028 53 0 0.0 0.0 0.00 0.00 0.00 86 1019.9
20260506144527 53 0 0.0 0.0 0.00 0.01 0.00 89 1020.0
20260506143035 51 0 0.0 0.0 0.00 0.01 0.00 88 1019.9
20260506141535 49 0 0.0 0.0 0.00 0.01 0.00 91 1019.9
20260506140030 47 0 0.0 0.0 0.00 0.01 0.00 92 1019.9
20260506134528 46 0 0.0 0.0 0.00 0.01 0.00 91 1019.6
20260506133030 47 0 0.0 0.0 0.00 0.01 0.00 90 1019.4
20260506131528 47 0 0.0 0.0 0.00 0.01 0.00 91 1019.3
20260506130031 47 0 0.0 0.0 0.00 0.01 0.00 91 1019.2
20260506124527 47 0 0.0 0.0 0.00 0.02 0.00 91 1019.0
20260506123033 47 0 0.0 0.0 0.00 0.02 0.00 91 1018.8
20260506121533 47 0 0.0 0.0 0.00 0.02 0.00 91 1018.8
20260506120031 47 0 0.0 0.0 0.00 0.02 0.00 88 1018.7
20260506114539 48 0 0.0 0.0 0.00 0.04 0.00 90 1018.6
20260506113030 48 0 0.0 0.0 0.00 0.04 0.00 90 1018.7
20260506111535 47 0 0.0 0.0 0.00 0.04 0.00 90 1018.7
20260506110030 47 0 0.0 0.0 0.00 0.04 0.00 88 1018.6
20260506104532 49 0 0.0 0.0 0.00 0.05 0.00 87 1018.6
20260506103030 49 0 0.0 0.0 0.00 0.05 0.00 88 1018.2
20260506101530 49 0 0.0 0.0 0.00 0.05 0.00 90 1018.2
20260506100028 48 0 0.0 0.0 0.00 0.05 0.00 89 1018.2
20260506094530 48 0 0.0 0.0 0.00 0.05 0.00 91 1018.1
20260506093032 48 0 0.0 0.0 0.00 0.05 0.00 88 1018.2
20260506091530 48 0 0.0 0.0 0.00 0.05 0.00 90 1018.2
20260506090030 48 0 0.0 0.0 0.00 0.05 0.00 89 1018.3
20260506084530 49 0 0.0 0.0 0.00 0.05 0.00 89 1018.4
20260506083029 48 0 0.0 0.0 0.00 0.05 0.00 90 1018.5
20260506081529 48 0 0.0 0.0 0.00 0.05 0.00 89 1018.4
20260506073030 49 0 0.0 0.0 0.00 0.05 0.00 89 1018.0
20260506071533 49 0 0.0 0.0 0.00 0.05 0.00 88 1017.9
20260506061535 50 0 0.0 0.0 0.00 0.05 0.05 87 1017.4
20260506044538 51 0 0.0 0.0 0.00 0.05 0.05 86 1016.7
20260506043028 51 0 0.0 0.0 0.00 0.05 0.05 85 1016.6
20260506041528 51 0 0.0 0.0 0.00 0.05 0.05 84 1016.5
20260506040051 51 0 0.0 0.0 0.00 0.05 0.05 83 1016.2
20260506034534 51 0 0.0 0.0 0.00 0.05 0.05 84 1016.1
20260506033028 51 0 0.0 0.0 0.00 0.05 0.05 83 1015.9
20260506031542 52 0 0.0 0.0 0.00 0.05 0.05 82 1015.7
20260506030029 53 0 0.0 0.0 0.00 0.05 0.05 81 1015.6
20260506024554 53 0 0.0 0.0 0.00 0.05 0.05 80 1015.4
20260506023030 55 0 0.0 0.0 0.00 0.05 0.05 78 1015.2
20260506021528 56 0 0.0 0.0 0.00 0.05 0.05 74 1015.2
20260506020030 57 0 0.0 0.0 0.00 0.05 0.05 72 1015.0
20260506014531 57 0 0.0 0.0 0.00 0.05 0.05 72 1015.0
20260506013030 58 0 0.0 2.0 0.00 0.05 0.05 70 1014.9
20260506011529 58 0 1.0 7.0 0.00 0.05 0.05 68 1015.0
20260506010031 59 0 0.0 4.0 0.00 0.05 0.05 66 1015.2
20260506004530 59 0 0.0 0.0 0.00 0.05 0.05 67 1015.0
20260506003028 59 0 0.0 0.0 0.00 0.05 0.05 66 1015.0
20260506001528 59 0 0.0 2.0 0.00 0.05 0.05 66 1015.1
20260506000029 60 0 0.0 0.0 0.00 0.05 0.05 69 1015.1
20260505234527 59 0 0.0 0.0 0.00 0.05 0.05 69 1015.1
20260505233031 59 0 0.0 1.0 0.00 0.05 0.05 72 1015.1
20260505231544 59 0 0.0 0.0 0.00 0.05 0.05 67 1015.1
20260505230032 59 0 0.0 0.0 0.00 0.05 0.05 66 1015.1
20260505224530 59 0 0.0 3.0 0.00 0.05 0.05 65 1015.2
20260505223030 59 0 0.0 6.0 0.00 0.05 0.05 67 1015.2
20260505221528 59 312 0.0 7.0 0.00 0.05 0.05 66 1015.2
20260505220038 59 0 0.0 1.0 0.00 0.05 0.05 70 1015.0
20260505214535 58 0 0.0 0.0 0.00 0.05 0.05 68 1015.2
20260505213027 58 0 0.0 0.0 0.00 0.05 0.05 73 1015.3
20260505211528 58 0 0.0 0.0 0.00 0.05 0.05 76 1015.3
20260505210029 58 0 0.0 0.0 0.00 0.05 0.05 75 1015.2
20260505204534 57 0 0.0 0.0 0.00 0.05 0.05 77 1015.1
20260505203032 56 0 0.0 0.0 0.00 0.05 0.05 79 1015.0
20260505201528 56 0 0.0 0.0 0.00 0.05 0.05 82 1015.0
20260505200039 56 0 0.0 4.0 0.00 0.05 0.05 80 1015.0
20260505194529 56 0 0.0 6.0 0.00 0.05 0.05 80 1015.1
20260505193029 56 0 1.0 6.0 0.00 0.05 0.05 82 1015.1
20260505191530 56 0 0.0 7.0 0.00 0.05 0.05 82 1015.0
20260505190035 55 0 0.0 9.0 0.00 0.05 0.05 85 1015.0
20260505184530 56 0 1.0 12.0 0.00 0.05 0.05 84 1015.0
20260505183032 56 0 1.0 11.0 0.00 0.05 0.05 84 1014.9
20260505181529 57 269 3.0 11.0 0.00 0.05 0.05 88 1014.8
20260505180032 56 277 0.0 7.0 0.00 0.05 0.05 90 1014.7
20260505174537 54 0 0.0 7.0 0.00 0.06 0.05 93 1014.6
20260505173030 53 270 1.0 4.0 0.00 0.06 0.05 93 1014.5
20260505171528 53 263 1.0 6.0 0.00 0.06 0.05 93 1014.3
20260505170030 53 0 0.0 6.0 0.00 0.06 0.05 94 1014.4
20260505164531 53 0 0.0 4.0 0.00 0.06 0.05 95 1014.2
20260505163031 52 0 0.0 1.0 0.00 0.06 0.05 95 1014.1
20260505161529 52 0 0.0 2.0 0.00 0.06 0.05 95 1014.1